TimeEDT,TemperatureF,Dew PointF,Humidity,Sea Level PressureIn,VisibilityMPH,Wind Direction,Wind SpeedMPH,Gust SpeedMPH,PrecipitationIn,Events,Conditions,WindDirDegrees,DateUTC
12:53 AM,73.0,70.0,90,30.18,7.0,South,3.5,-,N/A,,Clear,170,2013-07-05 04:53:00
1:53 AM,73.9,70.0,87,30.17,6.0,SSE,4.6,-,N/A,,Clear,150,2013-07-05 05:53:00
2:53 AM,72.0,70.0,93,30.17,5.0,Calm,Calm,-,N/A,,Clear,0,2013-07-05 06:53:00
3:53 AM,71.1,70.0,96,30.17,4.0,SSE,3.5,-,N/A,,Clear,150,2013-07-05 07:53:00
4:53 AM,72.0,70.0,93,30.18,4.0,South,3.5,-,N/A,,Clear,170,2013-07-05 08:53:00
5:25 AM,71.6,69.8,94,30.19,2.0,South,4.6,-,N/A,,Clear,180,2013-07-05 09:25:00
5:53 AM,73.0,70.0,90,30.19,3.0,Calm,Calm,-,N/A,,Clear,0,2013-07-05 09:53:00
6:18 AM,73.4,71.6,94,30.20,2.5,Calm,Calm,-,N/A,,Clear,0,2013-07-05 10:18:00
6:29 AM,73.4,71.6,94,30.20,3.0,South,4.6,-,N/A,,Clear,170,2013-07-05 10:29:00
6:53 AM,75.0,71.1,87,30.19,4.0,South,4.6,-,N/A,,Clear,170,2013-07-05 10:53:00
7:53 AM,79.0,72.0,79,30.19,9.0,SSW,4.6,-,N/A,,Clear,200,2013-07-05 11:53:00
8:53 AM,82.0,72.0,71,30.19,10.0,Calm,Calm,-,N/A,,Clear,0,2013-07-05 12:53:00
9:53 AM,84.0,72.0,67,30.18,10.0,WNW,4.6,-,N/A,,Partly Cloudy,290,2013-07-05 13:53:00
10:53 AM,86.0,72.0,63,30.17,10.0,Variable,3.5,-,N/A,,Clear,0,2013-07-05 14:53:00
11:53 AM,88.0,71.1,57,30.16,10.0,West,6.9,-,N/A,,Clear,280,2013-07-05 15:53:00
12:53 PM,88.0,73.0,61,30.15,10.0,SSW,5.8,-,N/A,,Mostly Cloudy,210,2013-07-05 16:53:00
1:53 PM,88.0,73.9,63,30.13,10.0,SSE,6.9,-,N/A,,Scattered Clouds,160,2013-07-05 17:53:00
2:53 PM,90.0,73.0,57,30.12,10.0,South,10.4,-,N/A,,Scattered Clouds,170,2013-07-05 18:53:00
3:53 PM,90.0,72.0,55,30.11,10.0,SSW,9.2,17.3,N/A,,Partly Cloudy,210,2013-07-05 19:53:00
4:53 PM,90.0,70.0,52,30.09,10.0,SW,8.1,17.3,N/A,,Clear,220,2013-07-05 20:53:00
5:53 PM,87.1,72.0,61,30.08,10.0,SSW,10.4,-,N/A,,Clear,210,2013-07-05 21:53:00
6:53 PM,84.9,73.0,67,30.08,10.0,SSW,11.5,-,N/A,,Clear,200,2013-07-05 22:53:00
7:53 PM,82.0,72.0,71,30.08,10.0,SSW,8.1,-,N/A,,Clear,200,2013-07-05 23:53:00
8:53 PM,80.1,72.0,76,30.09,10.0,South,5.8,-,N/A,,Clear,170,2013-07-06 00:53:00
9:53 PM,78.1,72.0,81,30.10,10.0,Calm,Calm,-,N/A,,Clear,0,2013-07-06 01:53:00
10:53 PM,75.9,71.1,85,30.10,10.0,Calm,Calm,-,N/A,,Clear,0,2013-07-06 02:53:00
11:53 PM,75.9,71.1,85,30.10,10.0,Calm,Calm,-,N/A,,Clear,0,2013-07-06 03:53:00